This is the latest recevied weather packets stored in our database for station/object K7FLA. If no packets are shown the sender has not sent any weather packets the latest 10 day(s).
| Time | Temp. | Humidity | Pressure | Rain* | Wind** | Luminosity | Snow |
|---|---|---|---|---|---|---|---|
| 1777463544 | 7.78° C | 79% | 1097.1 hPa | 0 mm | - | 0 W/m² | - |
| 1777463239 | 7.78° C | 80% | 1097 hPa | 0 mm | - | 0 W/m² | - |
| 1777462936 | 8.33° C | 79% | 1096.9 hPa | 0 mm | - | 0 W/m² | - |
| 1777462632 | 8.33° C | 80% | 1096.9 hPa | 0 mm | - | 0 W/m² | - |
| 1777462327 | 8.33° C | 80% | 1097 hPa | 0 mm | - | 0 W/m² | - |
| 1777462023 | 7.78° C | 81% | 1097 hPa | 0 mm | - | 0 W/m² | - |
| 1777461720 | 7.78° C | 80% | 1096.9 hPa | 0 mm | - | 0 W/m² | - |
| 1777461415 | 7.78° C | 79% | 1096.6 hPa | 0 mm | - | 0 W/m² | - |
| 1777461112 | 7.78° C | 79% | 1096.8 hPa | 0 mm | - | 0 W/m² | - |
| 1777460807 | 7.78° C | 78% | 1096.7 hPa | 0 mm | - | 0 W/m² | - |
| 1777460503 | 8.33° C | 78% | 1096.9 hPa | 0 mm | - | 0 W/m² | - |
| 1777460199 | 8.33° C | 78% | 1096.8 hPa | 0 mm | - | 0 W/m² | - |
| 1777459896 | 8.33° C | 79% | 1096.8 hPa | 0 mm | - | 0 W/m² | - |
| 1777459593 | 8.33° C | 76% | 1096.8 hPa | 0 mm | - | 0 W/m² | - |
| 1777459290 | 8.89° C | 77% | 1096.8 hPa | 0 mm | - | 0 W/m² | - |
| 1777458989 | 8.89° C | 77% | 1096.9 hPa | 0 mm | - | 0 W/m² | - |
| 1777458685 | 8.89° C | 77% | 1096.8 hPa | 0 mm | - | 0 W/m² | - |
| 1777458382 | 8.89° C | 77% | 1096.7 hPa | 0 mm | - | 0 W/m² | - |
| 1777458077 | 9.44° C | 77% | 1096.6 hPa | 0 mm | - | 0 W/m² | - |
| 1777457773 | 9.44° C | 77% | 1096.9 hPa | 0 mm | - | 0 W/m² | - |
| 1777457468 | 9.44° C | 78% | 1096.8 hPa | 0 mm | - | 0 W/m² | - |
| 1777457164 | 9.44° C | 78% | 1096.9 hPa | 0 mm | - | 0 W/m² | - |
| 1777456860 | 9.44° C | 78% | 1096.8 hPa | 0 mm | - | 0 W/m² | - |
| 1777456560 | 9.44° C | 79% | 1096.8 hPa | 0 mm | - | 0 W/m² | - |
| 1777456255 | 8.89° C | 79% | 1097 hPa | 0 mm | - | 0 W/m² | - |
* Rain latest hour (hover to see other rain measurements)
** Current wind speed in m/s (hover to see current wind gust speed)